Regional Weather Roundup
Issued by NWS Wakefield, VA

Home | Current Version | Previous Version | Text Only | Print | Product List | Glossary Off
Versions: 1 2 3 4 5 6 7 8 9 10 11 12 13 14 15 16 17 18 19 20 21 22 23 24 25 26 27 28 29 30 31 32 33 34 35 36 37 38 39 40 41 42 43 44 45 46 47 48 49 50

958
ASUS41 KAKQ 300115
RWRAKQ

REGIONAL WEATHER ROUNDUP
NATIONAL WEATHER SERVICE WAKEFIELD VA
900 PM EDT FRI JUL 29 2016

Note: "fair" indicates few or no clouds below 12,000 feet with no
significant weather and/or obstructions to visibility. * = Denotes
station may not report precipitation (e.g., rain,snow,etc.),
thunder or fog.

VAZ042-051-052>054-056-300200-
NORTHERN VIRGINIA

CITY           SKY/WX    TMP DP  RH WIND       PRES   REMARKS
WASH NATIONAL  FAIR      84  72  67 S7        29.90R
DULLES         FAIR      81  68  64 CALM      29.91R
FORT BELVOIR   FAIR      80  73  79 S1        29.90R
QUANTICO       NOT AVBL
FREDERICKSBRG* FAIR      80  74  82 CALM      29.91R
STAFFORD*      FAIR      75  73  93 CALM      29.95S
WARRENTON      FAIR      76  68  76 CALM      29.91S
CULPEPER*      FAIR      76  74  94 CALM      29.93S
MANASSAS*      NOT AVBL
LEESBURG*      FAIR      82  73  74 CALM      29.92S
WINCHESTER     FAIR      79  68  69 CALM      29.94R
FRONT ROYAL*   FAIR      77  72  83 SW3       29.93R
LURAY*         NOT AVBL
$$

VAZ048-049-060>072-079>083-300200-
CENTRAL AND SOUTH CENTRAL VIRGINIA

CITY           SKY/WX    TMP DP  RH WIND       PRES   REMARKS
RICHMOND       FAIR      78  73  84 CALM      29.92R
CHESTERFIELD*  FAIR      79  63  57 CALM      29.94R
PETERSBURG*    FAIR      76  76 100 CALM      29.93S
HANOVER        FAIR      76  72  87 CALM      29.94R
TAPPAHANNOCK*  NOT AVBL
QUINTON*       FAIR      78  75  92 E6        29.91S
CHARLOTTSVILLE FAIR      81  69  67 CALM      29.93S
GORDONSVILLE*  FAIR      76  73  90 CALM      29.93S
ORANGE*          N/A     77  77 100 CALM      29.95S
LOUISA*        FAIR      79  75  89 CALM      29.93R
BUMPASS*       FAIR      75  74  95 CALM      29.92S
FARMVILLE*     FAIR      77  76  97 CALM      29.92S
CREWE*         NOT AVBL
FORT PICKETT*  FAIR      77  76  98 CALM      29.94S
CHASE CITY*    FAIR      78  76  94 CALM      29.94S
CLARKSVILLE*   FAIR      77  77 100 CALM      29.93S
SOUTH HILL*    FAIR      77  74  91 CALM      29.99S
LAWRENCEVILLE* FAIR      77  74  88 CALM      29.93S
EMPORIA*       FAIR      77  72  83 CALM      29.94S
$$

VAZ088>098-300200-
SOUTHEAST VIRGINIA

CITY           SKY/WX    TMP DP  RH WIND       PRES   REMARKS
NORFOLK        MOCLDY    82  72  71 NE5       29.92R
VIRGINIA BEACH MOCLDY    86  71  60 CALM      29.92R
NORFOLK NAVAL  MOCLDY    81  72  74 CALM      29.94R
WEST POINT*    FAIR      77  73  87 CALM      29.93R
SALUDA*        FAIR      77  75  93 CALM      29.91S
NEWPORT NEWS   FAIR      78  75  90 CALM      29.92R
LANGLEY AFB    FAIR      80  75  83 W3        29.92R
FORT EUSTIS    FAIR      81  74  79 CALM      29.90R
WILLIAMSBURG*  FAIR      81  75  83 CALM      29.93R
HR EXEC AP*    FAIR      75  72  88 CALM      29.94R
FRANKLIN*      FAIR      78  73  85 CALM      29.93R
US460-WAKEFLD  FAIR      78  74  87 CALM      29.93R
$$

VAZ020-022-025-037-045-300200-
WEST CENTRAL AND SOUTHWEST VIRGINIA

CITY           SKY/WX    TMP DP  RH WIND       PRES   REMARKS
STAUNTON*      FAIR      74  69  84 CALM      29.99R
WAYNESBORO*    FAIR      75  68  79 S8        29.99R
HOT SPRINGS VA NOT AVBL
LYNCHBURG      FAIR      75  72  90 CALM      29.97S
DANVILLE       FAIR      76  69  79 CALM      29.94S
SOUTH BOSTON*  FAIR     N/A N/A N/A CALM      29.94R
MARTINSVILLE   MOCLDY    76  72  86 NW6       29.99R
ROANOKE        MOCLDY    78  70  76 W8        29.99R
BLACKSBURG     FOG       72  69  92 CALM      30.06F VSB 1
DUBLIN*        FAIR      72  71  97 CALM      30.05F
MARION*        LGT RAIN  71  69  93 NE3       30.08F
HILLSVILLE*    MOCLDY    69  68  98 CALM      30.07R
RICHLANDS*     FAIR      68  68  99 S3        30.06R
WISE*          FAIR      68  66  94 S5        30.08R
ABINGDON*      FAIR      71  70  95 CALM      30.05R
$$

MDZ021>025-VAZ099-100-300200-
SOUTHERN MARYLAND AND THE DELMARVA PENINSULA

CITY           SKY/WX    TMP DP  RH WIND       PRES   REMARKS
PATUXENT RIVER NOT AVBL
BAY BRIDGE APT CLEAR     81  73  78 S3        29.90R
LEONARDTOWN      N/A     77  72  83 MISG      29.93R
DOVER          CLEAR     76  76 100 SE6       29.90R
GEORGETOWN     CLEAR     75  72  90 SE5       29.92R
EASTON         CLEAR     79  77  94 CALM      29.95R
CAMBRIDGE      CLEAR     77  72  83 CALM      29.90R
SALISBURY      NOT AVBL
OCEAN CITY     CLEAR     76  73  91 CALM      29.92R
WALLOPS ISLAND FAIR      78  73  84 E7        29.92R
ACCOMACK*      NOT AVBL
$$

NCZ012>017-030>032-300200-
NORTH CENTRAL AND EASTERN NORTH CAROLINA

CITY           SKY/WX    TMP DP  RH WIND       PRES   REMARKS
ROANOKE RAPIDS FAIR      77  75  94 CALM      29.93R
RALEIGH        PTCLDY    81  72  74 CALM      29.93S
ELIZABETH CITY PTCLDY    81  74  79 E8        29.93R
AHOSKIE*       CLEAR     77  75  93 CALM      29.93R
EDENTON*       CLEAR     83  73  72 CALM      29.93R
CURRITUCK*     PTCLDY    82  74  78 NE6       29.93R
KILL DEVIL HLS PTCLDY    81  79  95 NE3       29.91R
MANTEO           N/A     81  78  90 NE6       29.92R
CAPE HATTERAS  CLOUDY    83  78  85 W6        29.93R
TARBORO*       FAIR      79  77  93 CALM      29.93S
GOLDSBORO      CLEAR     86  71  59 N2        29.91R
WASHINGTON     CLEAR     82  76  82 CALM      29.92R
GREENVILLE     CLEAR     82  77  83 N3        29.94R
NEW BERN       CLEAR     83  76  79 CALM      29.93R
WILMINGTON     CLEAR     85  77  77 SW8       29.93R HX  95
$$

VAZ048-300200-
ELSEWHERE

CITY           SKY/WX    TMP DP  RH WIND       PRES   REMARKS
HARRISBURG PA  PTCLDY    81  73  76 CALM      29.88S
BALTIMORE      PTCLDY    81  73  76 CALM      29.90R
ANNAPOLIS      CLEAR     82  72  71 S3        29.90R
ANDREWS AFB    FAIR      79  72  79 S3        29.90R
PHILADELPHIA   PTCLDY    81  70  69 SE6       29.90R
GREENSBORO     PTCLDY    84  67  56 SE5       29.95R
ROCKY MOUNT    CLEAR     79  75  87 CALM      29.92S
$$

VAZ100-300200-
MARINE

STATION/POSITION TIME  TEMP    WIND        PRES    WAVE   SWELL
                       AIR SEA DIR/SP/G            HT/PER HT/PER
                 (UTC) (F)     (DEG/KT/KT) (MB)    (FT/S) (FT/S)
BRANDYWINE LGT   0000   74     140/ 11/ 11   N/A
CAPE MAY NJ      0000      72                N/A
LEWES DE         0000      77                N/A
OCEAN-CITY-INLET 0000      73                N/A
WACHAPREAGUE VA  0000      86                N/A
THOMAS POINT MD  0100   84 84  180/  6/  7 1013.9R
GOOSES REEF MD   0100   85 87  210/  6/  8 1013.6R   0
COVE POINT MD    0000   83     180/  3/  4   N/A
SOLOMONS ISLAND  0000      86                N/A
BISHOPS HEAD MD  0000   83     350/  3/  5   N/A
PINEY POINT MD   0000          270/  2/  3   N/A
POTOMAC MD       0100   84 85  210/  2/  2 1011.7R   0
CAMBRIDGE MD     0000      87                N/A
LEWISETTA VA     0000      87                N/A
RAPPAHANNOCK LGT 0000          360/  7/  8   N/A
STINGRAY PT      0000   85 86  310/  6/  8 1013.1R   1/ 3
YORK RVR RNG VA  0000   84     320/  5/  6   N/A
YORKTOWN VA      0000      85                N/A
JAMESTOWN VA     0100   83 90   60/  2/  2   N/A     0
DOMINION TERM VA 0000   83     100/  5/  7   N/A
KIPTOPEKE VA     0000      81                N/A
CHES BAY BRIDGE  0000      77                N/A
CAPE HENRY VA    0000   81     360/  4/  5   N/A
WILLOUBY STN VA  0000   82      60/  3/  5   N/A
CAPE HENRY BUOY  0012      80                N/A     1/ 7
1ST LANDING BUOY 0100   81 80   40/  4/  4 1012.9R   1/ 3
CAPE CHARLES BUO 0026      78                N/A     1/14
OFFSHORE WE BUOY 0021      83                N/A     2/ 6
64NM E OF VA BCH 0050   82 83  360/  8/ 10 1012.6R   3/ 6   3/ 6
DUCK PIER NC     0000      73                N/A
44100 DUCK FRF   0005      81                N/A     2/14
44056 DUCK FRF   0011      79                N/A     2/13
OREGON INLET NC  0000      82                N/A
HATTERAS NC      0000      85                N/A
DIAMOND SHLS NC  0050   85 86  240/ 17/ 19 1013.0R   4/ 5   2/13
CAPE LOOKOUT NC  0100   84     230/  8/ 11 1012.9R
$$




USA.gov is the U.S. government's official web portal to all federal, state and local government web resources and services.